Regional Weather Roundup
Issued by NWS

Home | Current Version | Previous Version | Text Only | Print | Product List | Glossary Off
Versions: 1 2 3 4 5 6 7 8 9 10 11 12 13 14 15 16 17 18 19 20 21 22 23 24 25 26 27 28 29 30 31 32 33 34 35 36 37 38 39 40 41 42 43 44 45 46 47 48 49 50

000
ASUS43 KFSD 200610
RWRSD

WEATHER ROUNDUP FOR SOUTH DAKOTA
NATIONAL WEATHER SERVICE SIOUX FALLS SD
100 AM CDT SUN APR 20 2014

NOTE: "FAIR" INDICATES FEW OR NO CLOUDS BELOW 12,000 FEET WITH NO
SIGNIFICANT WEATHER AND/OR OBSTRUCTIONS TO VISIBILITY.


SDZ001>005-009-010-012>017-200700-
NORTHWEST AND NORTH CENTRAL SOUTH DAKOTA

CITY           SKY/WX    TMP DP  RH WIND       PRES   REMARKS
BUFFALO          N/A     45  27  49 SE7       29.90S
FAITH            N/A     46  28  49 S14       29.97F
MOBRIDGE       CLEAR     43  28  55 E6        29.96F
$$

SDZ012>016-024>037-041>051-057-063-072>074-200700-
SOUTHWEST AND SOUTH CENTRAL SOUTH DAKOTA

CITY           SKY/WX    TMP DP  RH WIND       PRES   REMARKS
RAPID CTY ARPT MOCLDY    44  27  51 CALM      29.98F
PIERRE         CLEAR     43  27  53 SE5       29.99S
CUSTER         PTCLDY    36  27  69 CALM      30.03F
ELLSWORTH AFB  PTCLDY    47  29  49 S9        29.97F
PHILIP         CLEAR     43  27  53 E5        29.98F
PINE RIDGE     CLEAR     51  27  39 CALM      30.01S
SPEARFISH      FAIR      46  32  57 CALM      29.96F
WINNER         FAIR      50  17  27 S7        30.01F
$$

SDZ004>011-016>023-039-040-200700-
NORTHEAST SOUTH DAKOTA

CITY           SKY/WX    TMP DP  RH WIND       PRES   REMARKS
ABERDEEN       CLEAR     47  34  60 N14       30.00S
WATERTOWN      FAIR      42  31  64 CALM      30.01S
SISSETON         N/A     44  35  70 NW12      30.01R
$$

SDZ017-020-022-023-036>040-048>070-200700-
SOUTHEAST SOUTH DAKOTA

CITY           SKY/WX    TMP DP  RH WIND       PRES   REMARKS
SIOUX FALLS    CLOUDY    55  39  54 CALM      30.01S
HURON          PTCLDY    42  31  64 CALM      29.99F
CHAMBERLAIN      N/A     48  24  39 S3        30.00F
MITCHELL       CLEAR     48  33  56 CALM      30.00F
YANKTON        FAIR      55  34  44 CALM      30.01R
$$

ABBREVIATIONS USED IN REMARKS
   TC - TEMPERATURE IN CELSIUS
  WCI - WIND CHILL INDEX
   HX - HEAT INDEX
  VSB - VISIBILITY




USA.gov is the U.S. government's official web portal to all federal, state and local government web resources and services.